• Join FlightAware (Why Join?)
  • Login
  • US Flag 
06:28AM EDT


 

Airport Tracker/Info


-or-


 

Live Flight TrackerFlight Track Log ✈ USC110 ✈ 16-Jun-2013 ✈ KFTY - KCLT

Flight Track Log - Related Links

Times and Time Zones

All times are in EDT time to prevent confusion due to time zone crossing. See the USC110 flight status page for this flight to view local times or setup timezone preferences in your user account.

Time Position Orientation Groundspeed Altitude Reporting Facility
EDT Latitude Longitude Course Direction KTS MPH feet Rate Location/Type
06:06PM 33.8167 -84.5167 90° East 120 138 3,800  Level Atlanta TRACON
06:07PM 33.8167 -84.4833 90° East 126 145 4,700 600 Climbing Atlanta TRACON
06:08PM 33.8333 -84.4333 68° East 159 183 5,000 120 Climbing Atlanta TRACON
06:09PM 33.8333 -84.3667 90° East 172 198 5,000  Level Atlanta TRACON
06:10PM 33.8333 -84.3167 90° East 168 193 5,000  Level Atlanta TRACON
06:11PM 33.8142 -84.1939 84° East  Level FlightAware Approximate
06:12PM 33.8500 -84.2500 73° East 168 193 5,000  Level Atlanta TRACON
06:12PM 33.8500 -84.2000 90° East 166 191 5,000  Level Atlanta TRACON
06:14PM 33.8667 -84.1500 68° East 173 199 5,000  Level Atlanta TRACON
06:14PM 33.8667 -84.1000 90° East 162 186 5,000  Level Atlanta TRACON
06:16PM 33.8667 -84.0333 90° East 165 190 5,000  Level Atlanta TRACON
06:16PM 33.8833 -83.9833 68° East 164 189 5,000  Level Atlanta TRACON
06:17PM 33.8833 -83.9333 90° East 165 190 5,000  Level Atlanta TRACON
06:18PM 33.8833 -83.8833 90° East 168 193 5,000  Level Atlanta TRACON
06:19PM 33.9000 -83.8333 68° East 168 193 5,000  Level Atlanta TRACON
06:20PM 33.9167 -83.7667 73° East 169 194 5,000  Level Atlanta TRACON
06:22PM 33.9333 -83.7167 68° East 166 191 5,000  Level Atlanta TRACON
06:22PM 33.9333 -83.6667 90° East 164 189 5,000  Level Atlanta TRACON
06:24PM 33.9500 -83.6000 73° East 166 191 5,000  Level Atlanta TRACON
06:24PM 33.9667 -83.5500 68° East 168 193 5,000  Level Atlanta TRACON
06:26PM 33.9667 -83.5000 90° East 166 191 5,000  Level Atlanta TRACON
06:27PM 33.9833 -83.4500 68° East 169 194 5,000  Level Atlanta TRACON
06:28PM 34.0000 -83.3833 73° East 166 191 5,000  Level Atlanta TRACON
06:29PM 34.0167 -83.3333 68° East 167 192 5,000  Level Atlanta TRACON
06:30PM 34.0214 -83.2744 84° East 175 201 5,000  Level Atlanta Center
06:31PM 34.0317 -83.2242 76° East 165 190 5,000  Level Atlanta Center
06:32PM 34.0436 -83.1714 75° East 165 190 5,000  Level Atlanta Center
06:33PM 34.0539 -83.1161 77° East 165 190 5,000  Level Atlanta Center
06:34PM 34.0681 -83.0633 72° East 165 190 5,000  Level Atlanta Center
06:35PM 34.0781 -83.0081 78° East 165 190 5,000  Level Atlanta Center
06:36PM 34.0919 -82.9528 73° East 165 190 5,000  Level Atlanta Center
06:37PM 34.1019 -82.8972 78° East 165 190 5,000  Level Atlanta Center
06:38PM 34.1244 -82.8469 62° Northeast 165 190 5,000  Level Atlanta Center
06:39PM 34.1469 -82.7989 60° Northeast 165 190 5,000  Level Atlanta Center
06:40PM 34.1714 -82.7508 58° Northeast 165 190 5,000  Level Atlanta Center
06:41PM 34.1939 -82.7003 62° Northeast 165 190 5,000  Level Atlanta Center
06:42PM 34.2183 -82.6494 60° Northeast 165 190 5,000  Level Atlanta Center
06:43PM 34.2408 -82.6014 60° Northeast 165 190 5,000  Level Atlanta Center
06:44PM 34.2694 -82.5558 53° Northeast 165 190 5,000  Level Atlanta Center
06:45PM 34.2981 -82.5100 53° Northeast 165 190 5,000  Level Atlanta Center
06:46PM 34.3247 -82.4642 55° Northeast 170 196 5,000  Level Atlanta Center
06:47PM 34.3533 -82.4158 54° Northeast 170 196 5,000  Level Atlanta Center
06:48PM 34.3797 -82.3700 55° Northeast 170 196 5,000  Level Atlanta Center
06:49PM 34.4083 -82.3242 53° Northeast 170 196 5,000  Level Atlanta Center
06:51PM 34.4237 -82.2291 62° Northeast  Level FlightAware Approximate
06:58PM 34.5724 -81.8860 63° Northeast  Level FlightAware Approximate
06:59PM 34.5928 -81.8364 63° Northeast  Level FlightAware Approximate
06:59PM 34.7233 -81.7947 64° Northeast 186 214 5,000  Level Atlanta Center
07:00PM 34.6132 -81.7867 63° Northeast  Level FlightAware Approximate
07:01PM 34.6335 -81.7371 64° Northeast  Level FlightAware Approximate
07:01PM 34.7597 -81.7381 52° Northeast 185 213 5,000  Level Atlanta Center
07:02PM 34.6538 -81.6874 64° Northeast  Level FlightAware Approximate
07:02PM 34.7881 -81.6842 57° Northeast 185 213 5,000  Level Atlanta Center
07:02PM 34.8142 -81.6378 56° Northeast 186 214 5,000  Level Atlanta Center
07:03PM 34.6741 -81.6377 64° Northeast  Level FlightAware Approximate
07:04PM 34.6944 -81.5880 64° Northeast  Level FlightAware Approximate
07:04PM 34.8528 -81.5786 51° Northeast 187 215 5,000  Level Atlanta Center
07:05PM 34.7147 -81.5382 64° Northeast  Level FlightAware Approximate
07:05PM 34.8872 -81.5269 51° Northeast 191 220 4,900  Level Atlanta Center
07:06PM 34.9347 -81.5025 23° Northeast 182 209 5,000  Climbing Atlanta Center
07:07PM 34.9758 -81.4811 23° Northeast 182 209 5,000  Level Atlanta Center
07:08PM 35.0214 -81.4519 28° Northeast 187 215 5,000  Level Atlanta Center
07:09PM 35.0708 -81.4222 26° Northeast 186 214 5,000  Level Atlanta Center
07:10PM 35.1203 -81.3953 24° Northeast 186 214 5,000  Level Atlanta Center
07:11PM 35.1636 -81.3736 22° Northeast 186 214 5,000  Level Atlanta Center
07:12PM 35.2064 -81.3342 37° Northeast 185 213 5,000  Level Atlanta Center
07:13PM 35.2433 -81.3025 35° Northeast 186 214 5,000  Level Atlanta Center
07:14PM 35.2906 -81.2703 29° Northeast 184 212 5,000 -180 Level Atlanta Center
07:15PM 35.3336 -81.2308 37° Northeast 182 209 4,700 -480 Descending Atlanta Center
07:16PM 35.3614 -81.1764 58° Northeast 187 215 4,000 -420 Descending Atlanta Center
07:17PM 35.3642 -81.1175 87° East 172 198 3,900 -420 Descending Atlanta Center
07:18PM 35.3586 -81.0592 97° East 187 215 3,200 -780 Descending Atlanta Center
07:19PM 35.3383 -80.9964 112° Southeast 181 208 2,400 -540 Descending Atlanta Center
07:20PM 35.2961 -80.9725 155° Southeast 164 189 2,200 -480 Descending Atlanta Center
07:21PM 35.2536 -80.9461 153° Southeast 169 194 1,500 -720 Descending Atlanta Center
07:23PM 35.2137 -80.9491 148° Southeast  Level Estimated
07:30PM 35.2137 -80.9491 148° Southeast  Level Estimated